Location: Stull Observatory
(42.2506°N, 77.7903°W)
Time: 07:57:45
(UTC-04:00)

Okean O Rocket - Visible Passes

Search period start: 23 August 2017 00:00
Search period end: 02 September 2017 00:00
Orbit: 624 x 644 km, 98.1° (Epoch: 23 August)

Date Brightness Start Highest point End Pass type
(mag) Time Alt. Az. Time Alt. Az. Time Alt. Az.
23 Aug 1.6 05:21:04 10° NNE 05:25:31 83° WNW 05:29:54 10° SSW visible
24 Aug 4.3 04:07:46 10° NE 04:10:28 16° E 04:13:08 10° SE visible
24 Aug 1.9 05:42:51 10° N 05:47:07 48° WNW 05:51:19 10° SW visible
25 Aug 3.6 04:28:35 10° NE 04:32:18 26° E 04:35:58 10° SSE visible
26 Aug 2.7 04:49:50 10° NNE 04:54:04 44° E 04:58:14 10° S visible
27 Aug 1.7 05:11:21 10° NNE 05:15:46 77° ESE 05:20:07 10° S visible
28 Aug 4.4 03:58:50 10° ENE 04:00:36 12° E 04:02:23 10° ESE visible
28 Aug 1.6 05:33:02 10° N 05:37:23 62° WNW 05:41:42 10° SSW visible
29 Aug 3.9 04:19:10 10° NE 04:22:28 21° E 04:25:45 10° SE visible
29 Aug 2.3 05:54:55 10° N 05:58:58 36° WNW 06:02:57 10° SW visible
30 Aug 3.1 04:40:15 10° NNE 04:44:16 34° E 04:48:15 10° SSE visible
31 Aug 2.1 05:01:39 10° NNE 05:06:00 59° E 05:10:17 10° S visible
01 Sep 1.5 05:23:15 10° N 05:27:39 80° WNW 05:32:01 10° SSW visible
